Location: ??????????
(42.1626°N, 44.1160°E)
Time: 15:11:55
(UTC+00:00)

DELTA 2 R/B (1) - Pass Details

Date: 03 March 2021
Orbit: 790 x 803 km, 39.6° (Epoch: 20 April)

Event Time Altitude Azimuth Distance (km) Brightness Sun altitude
Rises 17:02:48 0° 233° (SW) 3,272 7.3 -24.2°
Reaches altitude 10° 17:05:24 10° 225° (SW) 2,343 6.4 -24.6°
Enters shadow 17:09:37 37° 181° (S) 1,210 4.3 -25.4°
